Content
SEND FEEDBACK

Daily
Averages
Monthly
Summary
United States of America

BUCKHORN, NEW MEXICO


Home > North America > United States > New Mexico
Elevation: 1236 meters     Latitude: 32 42N     Longitude: 108 44W

WEATHER
 
SELECT A DAY
Number of Records: 57,012;   Date Range: 2/15/12 - 7/21/14
 
SHARE

PRINT THIS DATA

[ ← Previous Day ]
WEATHER ALMANAC - 13 FEBRUARY, 2013
[ Next Day → ]
[ °F ]   °C
Weather ElementAverageHighLow
Temperature3.2 °C12 °C (2:15 pm)-7 °C (7:15 am)
Dewpoint-9.7 °C-7 °C (8:15 am)-12 °C (2:55 pm)
Humidity43.3 %80 % (5:35 am)18 % (2:55 pm)
Barometer1020.3 hPa1022.4 hPa (8:15 am)1018.3 hPa (3:55 pm)
Wind Speed7.6 km/h20.4 km/h (4:15 pm)
Weather ElementAverage
Visibility16.1 km
Wind DirectionS (183 °)

Weather ElementTotal
Precipitation---
Heating Degree Days15.8 (Base 18.3)
Averaged from 70 records on 13 February, 2013
WEATHER CONDITIONS BREAKOUT
WIND DIRECTION BREAKOUT
WEATHER BY HOUR - 13 FEBRUARY, 2013
[ °F ]   °C
Local TimeTemperatureDewpointHumidityBarometerVisibilityWind DirectionWind SpeedGust SpeedPrecipitationEventsConditions
12:35 AM-1 °C-10 °C51 %1021.3 hPa16.1 kmWNW (290°)11.1 km/hClear
12:55 AM-1 °C-10 °C51 %1021.3 hPa16.1 kmWNW (290°)14.8 km/hClear
1:15 AM-1 °C-10 °C51 %1021.3 hPa16.1 kmWest (280°)13 km/hClear
1:35 AM0 °C-9 °C51 %1021.3 hPa16.1 kmWest (280°)14.8 km/hClear
1:55 AM0 °C-9 °C51 %1021.3 hPa16.1 kmWest (270°)13 km/hClear
2:15 AM0 °C-9 °C51 %1021 hPa16.1 kmWest (270°)13 km/hClear
2:35 AM-1 °C-8 °C60 %1021 hPa16.1 kmWest (270°)14.8 km/hClear
2:55 AM0 °C-8 °C55 %1021 hPa16.1 kmWest (280°)13 km/hClear
3:15 AM-1 °C-9 °C55 %1021 hPa16.1 kmWNW (290°)13 km/hClear
3:35 AM-1 °C-9 °C55 %1020.7 hPa16.1 kmCalmClear
3:55 AM-3 °C-10 °C59 %1020.7 hPa16.1 kmESE (120°)11.1 km/hClear
4:15 AM-5 °C-10 °C68 %1020.7 hPa16.1 kmCalmClear
4:35 AM-5 °C-10 °C68 %1020.7 hPa16.1 kmSSE (160°)5.6 km/hClear
4:55 AM-6 °C-10 °C74 %1020.7 hPa16.1 kmSouth (170°)5.6 km/hClear
5:15 AM-5 °C-9 °C74 %1020.7 hPa16.1 kmSouth (180°)7.4 km/hClear
5:35 AM-5 °C-8 °C80 %1020.7 hPa16.1 kmSouth (190°)9.3 km/hClear
5:55 AM-4 °C-8 °C74 %1020.7 hPa16.1 kmSSE (150°)5.6 km/hClear
6:15 AM-4 °C-8 °C74 %1020.7 hPa16.1 kmCalmClear
6:35 AM-6 °C-10 °C74 %1021 hPa16.1 kmCalmClear
6:55 AM-6 °C-9 °C80 %1021 hPa16.1 kmCalmClear
7:15 AM-7 °C-10 °C80 %1021.3 hPa16.1 kmCalmClear
7:35 AM-5 °C-8 °C80 %1021.3 hPa16.1 kmCalmClear
7:55 AM-3 °C-8 °C69 %1022 hPa16.1 kmCalmClear
8:15 AM-2 °C-7 °C69 %1022.4 hPa16.1 kmCalmClear
8:35 AM0 °C-7 °C60 %1022.4 hPa16.1 kmCalmClear
8:55 AM0 °C-7 °C60 %1022.4 hPa16.1 kmCalmClear
9:15 AM1 °C-7 °C56 %1022.4 hPa16.1 kmCalmClear
9:35 AM2 °C-7 °C52 %1022.4 hPa16.1 kmCalmClear
9:55 AM3 °C-8 °C45 %1022.4 hPa16.1 kmCalmClear
10:15 AM5 °C-7 °C42 %1022.4 hPa16.1 kmCalmClear
10:35 AM5 °C-8 °C39 %1022.4 hPa16.1 kmCalmClear
10:55 AM6 °C-8 °C36 %1022.4 hPa16.1 kmCalmClear
11:15 AM7 °C-8 °C34 %1022.4 hPa16.1 kmEast (90°)5.6 km/hClear
11:35 AM8 °C-8 °C32 %1022 hPa16.1 kmCalmClear
11:55 AM8 °C-8 °C32 %1021.3 hPa16.1 kmCalmClear
12:15 PM9 °C-8 °C30 %1021 hPa16.1 kmCalmClear
12:35 PM9 °C-8 °C30 %1020.7 hPa16.1 kmWNW (290°)7.4 km/hClear
12:55 PM10 °C-8 °C28 %1020.3 hPa16.1 kmCalmClear
1:15 PM10 °C-9 °C26 %1020 hPa16.1 kmCalmClear
1:35 PM11 °C-10 °C22 %1019.3 hPa16.1 kmWest (270°)11.1 km/hClear
1:55 PM11 °C-11 °C21 %1019.3 hPa16.1 kmWSW (240°)7.4 km/hClear
2:15 PM12 °C-11 °C19 %1019 hPa16.1 kmSSW (210°)5.6 km/hClear
2:55 PM12 °C-12 °C18 %1018.6 hPa16.1 kmWest (280°)13 km/hClear
3:15 PM11 °C-12 °C19 %1018.6 hPa16.1 kmWest (280°)11.1 km/hClear
3:35 PM12 °C-11 °C19 %1018.6 hPa16.1 kmWNW (300°)14.8 km/hClear
3:55 PM12 °C-11 °C19 %1018.3 hPa16.1 kmWNW (300°)13 km/hClear
4:15 PM12 °C-11 °C19 %1018.3 hPa16.1 kmWNW (300°)20.4 km/hClear
4:35 PM12 °C-10 °C21 %1018.3 hPa16.1 kmWNW (300°)16.7 km/hClear
4:55 PM12 °C-10 °C21 %1018.3 hPa16.1 kmWNW (300°)14.8 km/hClear
5:15 PM12 °C-9 °C22 %1018.3 hPa16.1 kmNW (310°)14.8 km/hClear
5:35 PM11 °C-9 °C24 %1018.3 hPa16.1 kmNW (310°)13 km/hClear
5:55 PM10 °C-11 °C22 %1018.6 hPa16.1 kmWNW (300°)14.8 km/hClear
6:15 PM9 °C-11 °C24 %1018.6 hPa16.1 kmWNW (300°)14.8 km/hClear
6:35 PM8 °C-11 °C25 %1018.6 hPa16.1 kmWNW (290°)13 km/hClear
6:55 PM7 °C-12 °C25 %1018.6 hPa16.1 kmWest (280°)11.1 km/hClear
7:15 PM6 °C-12 °C27 %1018.6 hPa16.1 kmWest (280°)11.1 km/hClear
7:35 PM5 °C-12 °C29 %1019 hPa16.1 kmWNW (290°)11.1 km/hClear
7:55 PM5 °C-12 °C29 %1019.3 hPa16.1 kmNW (310°)5.6 km/hClear
8:15 PM3 °C-12 °C33 %1019.3 hPa16.1 kmNW (320°)11.1 km/hClear
8:35 PM2 °C-12 °C35 %1019.3 hPa16.1 kmWNW (300°)5.6 km/hClear
8:55 PM2 °C-12 °C35 %1019.3 hPa16.1 kmNW (310°)9.3 km/hClear
9:15 PM2 °C-11 °C38 %1019.3 hPa16.1 kmWNW (290°)7.4 km/hClear
9:35 PM1 °C-11 °C41 %1019.3 hPa16.1 kmWNW (290°)9.3 km/hClear
9:55 PM2 °C-11 °C38 %1019.6 hPa16.1 kmWNW (290°)13 km/hClear
10:15 PM2 °C-11 °C38 %1019.6 hPa16.1 kmWest (280°)7.4 km/hClear
10:35 PM2 °C-11 °C38 %1019.6 hPa16.1 kmWest (280°)14.8 km/hClear
10:55 PM2 °C-11 °C38 %1019.6 hPa16.1 kmWest (280°)13 km/hClear
11:15 PM2 °C-11 °C38 %1019.6 hPa16.1 kmWest (280°)9.3 km/hClear
11:35 PM2 °C-11 °C38 %1019.6 hPa16.1 kmWest (270°)11.1 km/hClear
11:55 PM1 °C-11 °C41 %1019.6 hPa16.1 kmWNW (300°)7.4 km/hClear
Hourly data recorded from KLSB, located 0 kilometers away from Buckhorn, New Mexico







STORIES FROM OUR PARTNERS